sat.trackr.live / text

‹ back to catalog

ONEWEB-0140

NORAD 47286 · 2020-100AE

PAYLOAD ACTIVE UNKNOWN

§ Identity

Operator
Country
UK
Launch date
2020-12-18
Launch site
VOSTO
Launch vehicle
Mass (kg)
RCS (m²)

Purposes: comms

External: N2YO · Heavens-Above · Gunter

§ Orbital elements

Epoch: 2026-05-25T02:21:48.729888Z

Period
109.72 min
Inclination
87.8962°
Eccentricity
0.0001808
Mean motion
13.12443213 rev/d
Perigee alt
1,212.3 km
Apogee alt
1,215.1 km
Semi-major
7,591.9 km
B*
6.8029e-4
RAAN
355.2334°
Arg perigee
80.5228°
Mean anomaly
279.6105°
Rev number
26,166

§ Raw data

ONEWEB-01401 47286U 20100AE  26145.09848067  .00000257  00000+0  68029-3 0  99912 47286  87.8962 355.2334 0001808  80.5228 279.6105 13.12443213261661

JSON: /api/v1/satellites/47286 · /tle

For live sub-satellite position, see the globe view (requires WebGL).

§ Visibility from observer

Set your observer location to see the next 7 days of passes ≥ 10°. The values pass through the URL so the page stays shareable.

No JS? Fill the form by hand. The geolocation button needs JavaScript.